Regional Weather Roundup
Issued by NWS

Home | Current Version | Previous Version | Text Only | Print | Product List | Glossary On
Versions: 1 2 3 4 5 6 7 8 9 10 11 12 13 14 15 16 17 18 19 20 21 22 23 24 25 26 27 28 29 30 31 32 33 34 35 36 37 38 39 40 41 42 43 44 45 46 47 48 49 50
000
ASUS43 KDTX 241601
RWRMI
MICHIGAN HOURLY REGIONAL WEATHER ROUNDUP
NATIONAL WEATHER SERVICE DETROIT/PONTIAC MI
1200 PM EDT THU JUL 24 2014

NOTE: "FAIR" INDICATES FEW OR NO CLOUDS BELOW 12,000 FEET WITH NO
SIGNIFICANT WEATHER AND/OR OBSTRUCTION TO VISIBILITY.

MIZ047>049-052>055-059>063-066>070-074>076-081>083-241700-
SOUTHEAST LOWER MICHIGAN

CITY           SKY/WX    TMP DP  RH WIND       PRES   REMARKS
ADRIAN         PTSUNNY   73  48  41 NE10      30.13F
ALMA           MOSUNNY   68  48  48 N6        30.16S
ANN ARBOR      PTSUNNY   70  46  42 NE8       30.13S
BAD AXE        PTSUNNY   67  50  53 N9        30.14F
CARO           MOSUNNY   69  53  56 N3        30.14F
DETROIT CITY   PTSUNNY   71  49  45 NE8       30.12S
DETROIT        PTSUNNY   71  48  43 N12G23    30.13S
FLINT          CLOUDY    70  47  43 N7        30.14S
GROSSE ILE     PTSUNNY   70  46  43 N8        30.11S
HILLSDALE      PTSUNNY   69  48  47 NE6       30.15R
HOWELL         PTSUNNY   69  44  41 NE9       30.15S

CITY           SKY/WX    TMP DP  RH WIND       PRES   REMARKS
JACKSON        MOSUNNY   69  50  50 NE8       30.15S
LAMBERTVILLE   MOSUNNY   73  46  38 NE7       30.12S
LANSING        PTSUNNY   68  51  54 NW6       30.16S
LAPEER         PTSUNNY   68  46  44 NE6       30.14S
MASON          PTSUNNY   67  50  53 NE6       30.15F
MONROE         PTSUNNY   70  48  46 N7        30.11R
MT. CLEMENS    MOSUNNY   71  50  48 N9        30.11S
PONTIAC        PTSUNNY   68  44  42 VRB7      30.13S
PORT HOPE        N/A     66  56  70 CALM      30.14R
PORT HURON     CLOUDY    68  54  60 N6        30.13S
TRI CITIES     SUNNY     71  52  50 N6        30.16S
TROY           PTSUNNY   68  46  44 N7        30.14S
SAGINAW HB     MOSUNNY   70  52  52 N6        30.14F
$$
MIZ043>046-050>051-056>058-064>065-071>073-077>080-241700-
SOUTHWEST LOWER MICHIGAN

CITY           SKY/WX    TMP DP  RH WIND       PRES   REMARKS
BATTLE CREEK   PTSUNNY   69  48  47 N8        30.16S
BENTON HARBOR  CLOUDY    65  54  67 VRB6      30.16R
BIG RAPIDS     PTSUNNY   70  47  44 N9        30.15F
COLDWATER      PTSUNNY   70  50  50 N7        30.15S
FREMONT        FAIR      69  46  44 N6        30.16F
HOLLAND        MOSUNNY   72  50  45 NE8       30.17S
GRAND RAPIDS   PTSUNNY   69  51  52 NE7       30.16F
IONIA          PTSUNNY   67  50  55 CALM      30.15F
KALAMAZOO      PTSUNNY   68  49  50 N8        30.16F
LUDINGTON      MOSUNNY   67  53  60 NW5       30.17F
MARSHALL       PTSUNNY   67  49  52 N5        30.15S
MOUNT PLEASANT SUNNY     70  50  50 N7        30.15F
MUSKEGON       MOSUNNY   71  47  42 NE6       30.17F
SOUTH HAVEN    PTSUNNY   67  56  67 NW5       30.16S
$$
MIZ016>042-241700-
NORTHERN LOWER MICHIGAN

CITY           SKY/WX    TMP DP  RH WIND       PRES   REMARKS
ALPENA         SUNNY     70  49  47 NW12      30.14S
BEAVER ISLAND  SUNNY     66  53  61 W7        30.16F
BELLAIRE       MOSUNNY   68  49  51 N5        30.16F
CADILLAC       MOSUNNY   65  50  58 N7        30.17S
CHARLEVOIX     SUNNY     66  50  54 W10       30.20S
FRANKFORT      SUNNY     69  46  44 N3        30.17F
GAYLORD        SUNNY     65  47  52 VRB6      30.17S
GRAYLING       SUNNY     69  48  47 N9        30.17S
HARBOR SPRINGS SUNNY     64  55  72 SW8G16    30.16S
HOUGHTON LAKE  SUNNY     68  47  46 NW10      30.17F
MANISTEE       SUNNY     66  48  52 NW12      30.18F
OSCODA         MOSUNNY   71  45  39 N3        30.13S
PELLSTON       SUNNY     68  52  56 W8        30.15F
ROGERS CITY    SUNNY     67  55  64 NW12      30.15S
TRAVERSE CITY  MOSUNNY   68  48  48 NE7       30.16F
$$
MIZ007>008-015-241700-
EASTERN UPPER MICHIGAN

CITY           SKY/WX    TMP DP  RH WIND       PRES   REMARKS
KINROSS        SUNNY     66  52  59 NW12      30.13F
MACKINAC ISLAN SUNNY     64  54  71 W8        30.13F
NEWBERRY       SUNNY     67  51  56 NW10G16   30.13F
S. S. MARIE    SUNNY     65  50  58 NW10      30.12F
MUNISING         N/A     67  49  52 N9        30.13F
$$
MIZ004>006-011>014-085-241700-
CENTRAL UPPER MICHIGAN

CITY           SKY/WX    TMP DP  RH WIND       PRES   REMARKS
MANISTIQUE     SUNNY     70  49  47 W3        30.14F
ESCANABA       MOSUNNY   70  46  43 NE3       30.15F
MENOMINEE      MOSUNNY   70  52  52 SE8       30.16S
$$
MIZ001>003-009>011-084-241700-
WESTERN UPPER MICHIGAN

CITY           SKY/WX    TMP DP  RH WIND       PRES   REMARKS
IRON MOUNTAIN  SUNNY     70  48  45 CALM      30.14F
HOUGHTON       SUNNY     69  51  52 NW10      30.13S
COPPER HARBOR    N/A     64  54  69 N14       30.10F
IRONWOOD       MOSUNNY   70  52  52 NW7       30.13S
$$

ABBREVIATIONS USED IN REMARKS
   TC - TEMPERATURE IN CELSIUS
  WCI - WIND CHILL INDEX
   HX - HEAT INDEX
  VSB - VISIBILITY



USA.gov is the U.S. government's official web portal to all federal, state and local government web resources and services.